Weather History for Oskaloosa, IA

Change the Weather History Date:

Saturday, January 12, 2013

  Actual Average (KOTM) Record (KOTM)
Temperature  
Mean Temperature 37 °F 22 °F  
Max Temperature 53 °F 31 °F 60 °F (1960)
Min Temperature 20 °F 13 °F -22 °F (1974)
Degree Days  
Heating Degree Days 28 43  
Month to date heating degree days 510  
Since 1 July heating degree days 3015  
Cooling Degree Days 0 0  
Month to date cooling degree days 0  
Year to date cooling degree days 0  
Moisture  
Dew Point 22 °F    
Average Humidity 70    
Maximum Humidity 84    
Minimum Humidity 50    
Precipitation  
Precipitation 0.00 in 0.03 in 1.17 in (1898)
Month to date precipitation 0.39  
Year to date precipitation 0.39  
Sea Level Pressure  
Sea Level Pressure 29.95 in    
Wind  
Wind Speed 17 mph (WNW)    
Max Wind Speed 29 mph    
Max Gust Speed 36 mph    
Visibility 10 miles    
Events      
T = Trace of Precipitation, MM = Missing Value Source: NWS Daily Summary

Daily Weather History Graph

Daily Weather History Graph

Search for Another Location

Airport:

Trip Planner

Search our weather history database for the weather conditions in past years. The results will help you decide how hot, cold, wet, or windy it might be!

Date:

Astronomy

Jan. 12, 2013 Rise Set
Actual Time 7:34 AM CST 5:02 PM CST
Civil Twilight 7:03 AM CST 5:33 PM CST
Nautical Twilight 6:29 AM CST 6:07 PM CST
Astronomical Twilight 5:56 AM CST 6:40 PM CST
Moon 7:52 AM CST (1/12) 6:33 PM CST (1/12)
Length of Visible Light 10h 29m
Length of Day
9h 28m
New Moon, 1% of the Moon is Illuminated
Jan 12
New Moon
Jan 18
First Quarter
Jan 26
Full
Feb 3
Last Quarter
Feb 10
New

Hourly Weather History & Observations

Time (CST) Temp. Windchill Dew Point Humidity Pressure Visibility Wind Dir Wind Speed Gust Speed Precip Events Conditions
12:15 AM 53.2 °F - 43.9 °F 71% 29.60 in 10.0 mi SSW 18.4 mph - N/A   Clear
12:35 AM 52.9 °F - 43.9 °F 71% 29.61 in 10.0 mi SSW 17.3 mph - N/A   Clear
12:55 AM 52.5 °F - 43.7 °F 72% 29.62 in 10.0 mi SW 15.0 mph - N/A   Clear
1:15 AM 52.3 °F - 43.3 °F 71% 29.63 in 10.0 mi SW 18.4 mph 23.0 mph N/A   Clear
1:35 AM 52.3 °F - 42.8 °F 70% 29.64 in 10.0 mi SW 19.6 mph 25.3 mph N/A   Clear
1:55 AM 53.1 °F - 39.4 °F 60% 29.66 in 10.0 mi WSW 23.0 mph 35.7 mph N/A   Clear
2:15 AM 50.9 °F - 32.7 °F 50% 29.69 in 5.0 mi WSW 23.0 mph 32.2 mph N/A   Haze
2:35 AM 44.2 °F 34.4 °F 37.6 °F 77% 29.73 in 7.0 mi West 28.8 mph 33.4 mph N/A   Clear
2:55 AM 41.2 °F 31.1 °F 36.5 °F 83% 29.76 in 7.0 mi West 24.2 mph 29.9 mph N/A   Scattered Clouds
3:15 AM 39.2 °F 28.5 °F 34.0 °F 82% 29.79 in 10.0 mi West 24.2 mph 32.2 mph N/A   Mostly Cloudy
3:35 AM 37.4 °F 26.1 °F 32.0 °F 81% 29.80 in 10.0 mi West 24.2 mph 29.9 mph N/A   Overcast
3:55 AM 36.0 °F 24.7 °F 31.1 °F 82% 29.82 in 10.0 mi West 21.9 mph 29.9 mph N/A   Overcast
4:15 AM 34.9 °F 23.3 °F 30.2 °F 83% 29.82 in 10.0 mi West 21.9 mph 27.6 mph N/A   Overcast
4:35 AM 34.5 °F 23.4 °F 29.7 °F 82% 29.83 in 10.0 mi West 19.6 mph 28.8 mph N/A   Mostly Cloudy
4:55 AM 34.3 °F 24.2 °F 29.8 °F 84% 29.84 in 10.0 mi West 16.1 mph - N/A   Overcast
5:15 AM 33.4 °F 22.0 °F 28.0 °F 81% 29.86 in 10.0 mi West 19.6 mph 26.5 mph N/A   Scattered Clouds
5:35 AM 32.9 °F 20.1 °F 27.0 °F 79% 29.87 in 10.0 mi West 24.2 mph 29.9 mph N/A   Scattered Clouds
5:55 AM 32.0 °F 19.8 °F 25.5 °F 77% 29.89 in 10.0 mi WNW 20.7 mph 28.8 mph N/A   Scattered Clouds
6:15 AM 31.3 °F 18.9 °F 24.8 °F 77% 29.90 in 10.0 mi WNW 20.7 mph 27.6 mph N/A   Clear
6:35 AM 30.0 °F 16.6 °F 21.9 °F 72% 29.93 in 10.0 mi West 23.0 mph 26.5 mph N/A   Clear
6:55 AM 28.8 °F 15.9 °F 20.7 °F 72% 29.94 in 10.0 mi WNW 19.6 mph 26.5 mph N/A   Clear
7:15 AM 27.9 °F 13.1 °F 20.7 °F 74% 29.95 in 10.0 mi West 25.3 mph - N/A   Clear
7:35 AM 27.1 °F 13.8 °F 19.2 °F 72% 29.95 in 10.0 mi West 19.6 mph 24.2 mph N/A   Clear
7:55 AM 26.4 °F 13.2 °F 18.9 °F 73% 29.98 in 10.0 mi West 18.4 mph 24.2 mph N/A   Clear
8:15 AM 26.1 °F 13.1 °F 18.1 °F 72% 29.98 in 10.0 mi WNW 17.3 mph - N/A   Clear
8:35 AM 26.6 °F 14.3 °F 18.5 °F 71% 30.00 in 10.0 mi WNW 16.1 mph - N/A   Clear
8:55 AM 26.2 °F 13.0 °F 17.4 °F 69% 29.99 in 10.0 mi NW 18.4 mph - N/A   Clear
9:15 AM 27.0 °F 12.8 °F 17.2 °F 67% 30.01 in 10.0 mi NW 21.9 mph 26.5 mph N/A   Clear
9:35 AM 27.1 °F 13.8 °F 16.3 °F 64% 30.01 in 10.0 mi WNW 19.6 mph 24.2 mph N/A   Clear
9:55 AM 27.3 °F 16.6 °F 16.3 °F 63% 30.03 in 10.0 mi West 12.7 mph 18.4 mph N/A   Clear
10:15 AM 27.5 °F 15.0 °F 16.3 °F 63% 30.01 in 10.0 mi WNW 17.3 mph 23.0 mph N/A   Clear
10:35 AM 28.0 °F 16.5 °F 17.1 °F 63% 30.02 in 10.0 mi WNW 15.0 mph 20.7 mph N/A   Clear
10:55 AM 28.4 °F 18.0 °F 17.6 °F 64% 30.03 in 10.0 mi WNW 12.7 mph - N/A   Clear
11:15 AM 27.9 °F 17.3 °F 16.7 °F 63% 30.03 in 10.0 mi West 12.7 mph - N/A   Clear
11:35 AM 29.3 °F 19.1 °F 17.6 °F 62% 30.03 in 10.0 mi West 12.7 mph - N/A   Clear
12:15 PM 28.9 °F 19.8 °F 16.9 °F 61% 30.02 in 10.0 mi NW 10.4 mph - N/A   Overcast
12:55 PM 28.9 °F 19.2 °F 17.6 °F 63% 30.02 in 10.0 mi NW 11.5 mph 17.3 mph N/A   Scattered Clouds
1:15 PM 28.8 °F 20.2 °F 18.1 °F 65% 30.02 in 10.0 mi WNW 9.2 mph - N/A   Mostly Cloudy
1:35 PM 28.4 °F 20.4 °F 18.5 °F 66% 30.01 in 10.0 mi NW 8.1 mph - N/A   Overcast
1:55 PM 28.9 °F 19.8 °F 19.2 °F 67% 30.01 in 10.0 mi NW 10.4 mph - N/A   Overcast
2:15 PM 28.9 °F 20.4 °F 19.4 °F 68% 30.02 in 10.0 mi NW 9.2 mph - N/A   Overcast
2:35 PM 28.9 °F 21.1 °F 18.7 °F 66% 30.04 in 10.0 mi NW 8.1 mph - N/A   Overcast
2:55 PM 28.9 °F 20.4 °F 19.4 °F 68% 30.05 in 10.0 mi NW 9.2 mph - N/A   Overcast
3:15 PM 28.9 °F 21.9 °F 19.4 °F 68% 30.03 in 10.0 mi NW 6.9 mph - N/A   Overcast
3:35 PM 28.9 °F 19.8 °F 19.4 °F 68% 30.03 in 10.0 mi WNW 10.4 mph - N/A   Overcast
3:55 PM 28.8 °F 20.2 °F 19.4 °F 68% 30.02 in 10.0 mi NNW 9.2 mph - N/A   Mostly Cloudy
4:15 PM 27.3 °F 16.6 °F 18.3 °F 69% 30.02 in 10.0 mi NNW 12.7 mph - N/A   Mostly Cloudy
4:35 PM 26.6 °F 15.2 °F 18.0 °F 70% 30.01 in 10.0 mi NNW 13.8 mph - N/A   Mostly Cloudy
4:55 PM 25.7 °F 13.5 °F 17.1 °F 70% 30.02 in 10.0 mi NNW 15.0 mph - N/A   Overcast
5:15 PM 25.5 °F 13.3 °F 16.7 °F 69% 30.01 in 10.0 mi NNW 15.0 mph - N/A   Overcast
5:35 PM 25.2 °F 13.9 °F 16.3 °F 69% 30.02 in 10.0 mi NW 12.7 mph - N/A   Overcast
5:55 PM 24.8 °F 14.0 °F 16.5 °F 71% 30.04 in 10.0 mi NW 11.5 mph - N/A   Overcast
6:15 PM 24.6 °F 13.2 °F 15.8 °F 69% 30.07 in 10.0 mi NW 12.7 mph - N/A   Overcast
6:35 PM 24.4 °F 14.2 °F 15.6 °F 69% 30.07 in 10.0 mi NW 10.4 mph - N/A   Overcast
6:55 PM 24.4 °F 14.2 °F 15.8 °F 70% 30.07 in 10.0 mi NW 10.4 mph - N/A   Overcast
7:15 PM 24.3 °F 13.9 °F 15.6 °F 70% 30.08 in 10.0 mi NW 10.4 mph 13.8 mph N/A   Overcast
7:55 PM 23.7 °F 11.5 °F 14.9 °F 69% 30.04 in 10.0 mi NNW 13.8 mph - N/A   Overcast
8:15 PM 23.4 °F 10.1 °F 14.7 °F 70% 30.02 in 10.0 mi NNW 16.1 mph - N/A   Overcast
8:35 PM 23.4 °F 11.1 °F 14.9 °F 70% 30.04 in 10.0 mi NW 13.8 mph 18.4 mph N/A   Overcast
8:55 PM 23.0 °F 10.1 °F 14.5 °F 70% 30.03 in 10.0 mi NNW 15.0 mph - N/A   Overcast
9:15 PM 23.0 °F 8.7 °F 14.7 °F 71% 30.01 in 10.0 mi NW 18.4 mph - N/A   Overcast
9:35 PM 22.6 °F 8.3 °F 14.2 °F 70% 30.01 in 10.0 mi NNW 18.4 mph - N/A   Overcast
9:55 PM 22.6 °F 9.6 °F 13.5 °F 68% 30.04 in 10.0 mi NW 15.0 mph - N/A   Overcast
10:15 PM 22.1 °F 9.5 °F 13.1 °F 68% 30.03 in 10.0 mi NNW 13.8 mph - N/A   Overcast
10:35 PM 22.1 °F 8.5 °F 12.9 °F 68% 30.05 in 10.0 mi NW 16.1 mph 19.6 mph N/A   Overcast
10:55 PM 21.7 °F 9.6 °F 12.2 °F 67% 30.05 in 10.0 mi NNW 12.7 mph - N/A   Overcast
11:15 PM 21.6 °F 9.9 °F 12.4 °F 68% 30.04 in 10.0 mi NNW 11.5 mph - N/A   Mostly Cloudy
11:35 PM 21.0 °F 6.6 °F 11.7 °F 67% 30.04 in 10.0 mi NNW 17.3 mph 21.9 mph N/A   Mostly Cloudy
11:55 PM 20.5 °F 6.9 °F 12.0 °F 70% 30.00 in 10.0 mi NNW 15.0 mph - N/A   Mostly Cloudy